Location: Palmerston North
(40.3500°S, 175.6170°E)
Time: 10:11:09
(UTC+13:00)

Helios 1B rocket - Pass Details

Date: 24 January 2019
Orbit: 575 x 585 km, 98.2° (Epoch: 21 February)

Event Time Altitude Azimuth Distance (km) Brightness Sun altitude
Exits shadow 23:01:06 63° 18° (NNE) 657 2.3 -21.1°
Maximum altitude 23:01:45 88° 104° (ESE) 592 2.3 -21.2°
Drops below altitude 10° 23:05:56 10° 192° (SSW) 1,926 6.0 -21.7°
Sets 23:08:07 0° 192° (SSW) 2,836 7.1 -21.9°
